FW9778 Weather Reports


time (UTC)temp
F
wind
direction
speed
knots
gust
knots
rain 1hr
in
rain 24hr
in
rain mn
in
humidity
%
barometer
mb
20260505041557 68 218 5.2 10.4 0.00 0.00 0.00 65 1003.0
20260505040038 68 261 4.3 8.7 0.00 0.00 0.00 64 1003.2
20260505034518 69 229 2.6 6.1 0.00 0.00 0.00 64 1003.2
20260505033116 69 231 3.5 8.7 0.00 0.00 0.00 62 1003.2
20260505031544 69 214 2.6 7.8 0.00 0.00 0.00 62 1002.9
20260505030028 70 233 2.6 7.8 0.00 0.00 0.00 61 1002.5
20260505024505 71 219 4.3 8.7 0.00 0.00 0.00 59 1002.3
20260505023058 71 242 3.5 7.0 0.00 0.00 0.00 58 1002.0
20260505021522 71 223 4.3 7.0 0.00 0.00 0.00 57 1001.6
20260505020002 72 205 2.6 7.0 0.00 0.00 0.00 57 1001.3
20260505014542 73 245 5.2 10.4 0.00 0.00 0.00 55 1001.2
20260505013023 73 167 4.3 9.6 0.00 0.00 0.00 55 1001.1
20260505011506 74 248 5.2 10.4 0.00 0.00 0.00 55 1001.1
20260505010048 75 251 4.3 8.7 0.00 0.00 0.00 54 1000.9
20260505004539 75 206 5.2 9.6 0.00 0.00 0.00 52 1000.8
20260505003011 76 207 7.0 12.2 0.00 0.00 0.00 51 1000.7
20260505001556 77 224 4.3 8.7 0.00 0.00 0.00 50 1000.6
20260505000038 78 240 4.3 12.2 0.00 0.00 0.00 46 1000.7
20260504234528 78 235 7.8 13.0 0.00 0.00 0.00 45 1000.6
20260504233004 79 243 7.8 15.6 0.00 0.00 0.00 44 1000.7
20260504231554 80 243 9.6 17.4 0.00 0.00 0.00 42 1000.8
20260504230029 80 244 8.7 15.6 0.00 0.00 0.00 42 1000.8
20260504224512 81 274 6.1 13.0 0.00 0.00 0.00 44 1000.6
20260504223059 81 252 12.2 18.2 0.00 0.00 0.00 42 1000.7
20260504221542 81 240 8.7 18.2 0.00 0.00 0.00 43 1000.7
20260504220023 81 264 7.8 16.5 0.00 0.00 0.00 43 1000.7
20260504214506 81 231 11.3 19.1 0.00 0.00 0.00 43 1000.7
20260504213058 81 245 10.4 19.1 0.00 0.00 0.00 43 1000.8
20260504211531 80 236 9.6 21.7 0.00 0.00 0.00 44 1000.7
20260504210015 80 203 9.6 17.4 0.00 0.00 0.00 45 1000.9
20260504204638 80 233 10.4 21.7 0.00 0.00 0.00 46 1000.9
20260504203040 80 229 8.7 18.2 0.00 0.00 0.00 47 1001.2
20260504201523 80 211 13.0 21.7 0.00 0.00 0.00 45 1001.2
20260504200010 79 233 8.7 17.4 0.00 0.00 0.00 47 1001.4
20260504194556 78 212 5.2 16.5 0.00 0.00 0.00 49 1002.0
20260504193039 79 236 8.7 20.0 0.00 0.00 0.00 48 1002.3
20260504191522 78 231 5.2 8.7 0.00 0.00 0.00 50 1002.5
20260504190007 76 240 7.8 17.4 0.00 0.00 0.00 48 1002.8
20260504184602 77 250 9.6 18.2 0.00 0.00 0.00 48 1003.0
20260504183034 78 252 8.7 15.6 0.00 0.00 0.00 47 1002.8
20260504181518 79 257 7.0 15.6 0.00 0.00 0.00 46 1002.8
20260504180003 78 236 7.0 13.9 0.00 0.00 0.00 47 1002.9
20260504174551 77 249 8.7 14.8 0.00 0.00 0.00 48 1003.1
20260504173031 77 257 7.0 19.1 0.00 0.00 0.00 48 1003.1
20260504171533 77 276 7.8 20.9 0.00 0.00 0.00 49 1003.3
20260504081524 61 254 1.7 3.5 0.00 0.00 0.00 68 1006.1
20260504050017 63 236 4.3 8.7 0.00 0.00 0.00 62 1007.8
20260504044502 64 223 5.2 7.8 0.00 0.00 0.00 62 1008.0
20260504043047 64 231 5.2 7.8 0.00 0.00 0.00 61 1008.1